Terminal Aerodrome Forecast
Issued by NWS Houston/Galveston, TX

Home | Current Version | Previous Version | Text Only | Print | Product List | Glossary On
Versions: 1 2 3 4 5 6 7 8 9 10 11 12 13 14 15 16 17 18 19 20 21 22 23 24 25 26 27 28 29 30 31 32 33 34 35 36 37 38 39 40 41 42 43 44 45 46 47 48 49 50
000
FTUS44 KHGX 291120
TAFGLS
TAF
KGLS 291120Z 2912/3012 18011KT P6SM -TSRA SCT015 BKN050CB
      TEMPO 2912/2913 VRB35KT 3SM TSRA BKN025CB
     FM291300 18012KT P6SM -SHRA SCT015 BKN050
      TEMPO 2916/2919 -TSRA BKN025CB
     FM292000 17012KT P6SM BKN035
     FM300300 16010KT P6SM SCT025=

USA.gov is the U.S. government's official web portal to all federal, state and local government web resources and services.